Litchfield, MN

4:35 AM CDT on September 23, 2017 (GMT -0500)
Litchfield Municipal

Weather History for KLJF - November, 2011

Change the Weather History Date:

Saturday, November 5, 2011

  Actual Average Record
Temperature  
Mean Temperature 48 °F -  
Max Temperature 57 °F 44 °F 74 °F (1975)
Min Temperature 39 °F 28 °F 0 °F (1951)
Degree Days  
Heating Degree Days 17    
Moisture  
Dew Point 37 °F    
Average Humidity 70    
Maximum Humidity 93    
Minimum Humidity 44    
Precipitation  
Precipitation 0.00 in - - ()
Sea Level Pressure  
Sea Level Pressure 29.80 in    
Wind  
Wind Speed 12 mph (SSE)    
Max Wind Speed 22 mph    
Max Gust Speed 33 mph    
Visibility 10 miles    
Events      
Averages and records for this station are not official NWS values.
T = Trace of Precipitation, MM = Missing Value Source: NWS Daily Summary

Daily Weather History Graph

Daily Weather History Graph

Search for Another Location

Airport or City:

Trip Planner

Search our weather history database for the weather conditions in past years. The results will help you decide how hot, cold, wet, or windy it might be!

Date:

Astronomy

Nov. 05, 2011 Rise Set
Actual Time 8:01 AM CDT 6:00 PM CDT
Civil Twilight 7:30 AM CDT 6:31 PM CDT
Nautical Twilight 6:55 AM CDT 7:06 PM CDT
Astronomical Twilight 6:21 AM CDT 7:40 PM CDT
Moon 3:29 PM CDT (11/5) 3:00 AM CDT (11/5)
Length of Visible Light 11h 00m
Length of Day
9h 58m
Waxing Gibbous, 78% of the Moon is Illuminated
Nov 5
Waxing Gibbous
Nov 10
Full
Nov 18
Last Quarter
Nov 25
New
Dec 2
First Quarter

Hourly Weather History & Observations

Time (CDT) Temp. Windchill Dew Point Humidity Pressure Visibility Wind Dir Wind Speed Gust Speed Precip Events Conditions
12:13 AM 42.8 °F 38.0 °F 32.0 °F 66% 30.00 in 10.0 mi SSE 8.1 mph 18.4 mph N/A   Clear
12:33 AM 41.0 °F 35.2 °F 32.0 °F 70% 29.99 in 10.0 mi SSE 9.2 mph - N/A   Clear
12:53 AM 41.0 °F 35.2 °F 32.0 °F 70% 29.99 in 10.0 mi SSE 9.2 mph 17.3 mph N/A   Clear
1:13 AM 41.0 °F 35.2 °F 32.0 °F 70% 29.98 in 10.0 mi SSE 9.2 mph 17.3 mph N/A   Clear
1:33 AM 41.0 °F 34.7 °F 30.2 °F 65% 29.98 in 10.0 mi SSE 10.4 mph 16.1 mph N/A   Clear
1:53 AM 41.0 °F 34.7 °F 30.2 °F 65% 29.97 in 10.0 mi SSE 10.4 mph 17.3 mph N/A   Clear
2:53 AM 41.0 °F 34.3 °F 30.2 °F 65% 29.96 in 10.0 mi SSE 11.5 mph 18.4 mph N/A   Clear
3:13 AM 41.0 °F 34.7 °F 30.2 °F 65% 29.95 in 10.0 mi SSE 10.4 mph 17.3 mph N/A   Clear
3:33 AM 41.0 °F 34.7 °F 30.2 °F 65% 29.94 in 10.0 mi SSE 10.4 mph 16.1 mph N/A   Clear
3:53 AM 41.0 °F 35.2 °F 30.2 °F 65% 29.94 in 10.0 mi SSE 9.2 mph - N/A   Clear
4:33 AM 39.2 °F 32.5 °F 32.0 °F 75% 29.93 in 10.0 mi SSE 10.4 mph 16.1 mph N/A   Clear
4:53 AM 39.2 °F 32.5 °F 32.0 °F 75% 29.92 in 10.0 mi SSE 10.4 mph 18.4 mph N/A   Clear
5:13 AM 39.2 °F 33.6 °F 32.0 °F 75% 29.91 in 10.0 mi SSE 8.1 mph - N/A   Clear
5:33 AM 39.2 °F 32.5 °F 32.0 °F 75% 29.91 in 10.0 mi SSE 10.4 mph - N/A   Clear
5:53 AM 39.2 °F 33.0 °F 33.8 °F 81% 29.90 in 10.0 mi SSE 9.2 mph - N/A   Clear
6:13 AM 39.2 °F 33.0 °F 33.8 °F 81% 29.89 in 10.0 mi SSE 9.2 mph 18.4 mph N/A   Clear
6:33 AM 39.2 °F 32.0 °F 35.6 °F 87% 29.89 in 10.0 mi SSE 11.5 mph 16.1 mph N/A   Clear
6:53 AM 39.2 °F 32.5 °F 35.6 °F 87% 29.88 in 10.0 mi SSE 10.4 mph 17.3 mph N/A   Clear
7:12 AM 39.2 °F 32.5 °F 35.6 °F 87% 29.88 in 10.0 mi SSE 10.4 mph 18.4 mph N/A   Clear
7:33 AM 39.2 °F 32.5 °F 35.6 °F 87% 29.87 in 10.0 mi SSE 10.4 mph 17.3 mph N/A   Clear
7:53 AM 39.2 °F 31.6 °F 35.6 °F 87% 29.86 in 10.0 mi SSE 12.7 mph 18.4 mph N/A   Clear
8:13 AM 39.2 °F 32.0 °F 35.6 °F 87% 29.86 in 10.0 mi SSE 11.5 mph 17.3 mph N/A   Clear
8:33 AM 39.2 °F 32.5 °F 37.4 °F 93% 29.85 in 10.0 mi SSE 10.4 mph 17.3 mph N/A   Clear
8:53 AM 41.0 °F 33.5 °F 37.4 °F 87% 29.85 in 10.0 mi SSE 13.8 mph 20.7 mph N/A   Clear
9:33 AM 42.8 °F 36.6 °F 37.4 °F 81% 29.85 in 10.0 mi SSE 11.5 mph 23.0 mph N/A   Clear
9:53 AM 42.8 °F 35.4 °F 37.4 °F 81% 29.84 in 10.0 mi SSE 15.0 mph 21.9 mph N/A   Clear
10:13 AM 44.6 °F 38.1 °F 39.2 °F 81% 29.83 in 10.0 mi SSE 13.8 mph 20.7 mph N/A   Clear
10:33 AM 44.6 °F 38.8 °F 39.2 °F 81% 29.82 in 10.0 mi SSE 11.5 mph 25.3 mph N/A   Clear
10:53 AM 46.4 °F 40.7 °F 39.2 °F 76% 29.82 in 10.0 mi SSE 12.7 mph 23.0 mph N/A   Clear
11:13 AM 46.4 °F 40.7 °F 39.2 °F 76% 29.82 in 10.0 mi SSE 12.7 mph 23.0 mph N/A   Clear
11:33 AM 48.2 °F - 39.2 °F 71% 29.81 in 10.0 mi SSE 11.5 mph 19.6 mph N/A   Clear
11:53 AM 51.8 °F - 39.2 °F 62% 29.80 in 10.0 mi SSE 13.8 mph 21.9 mph N/A   Clear
12:13 PM 51.8 °F - 39.2 °F 62% 29.79 in 10.0 mi SSE 11.5 mph 20.7 mph N/A   Clear
12:33 PM 51.8 °F - 39.2 °F 62% 29.78 in 10.0 mi SSE 16.1 mph 23.0 mph N/A   Clear
1:13 PM 53.6 °F - 37.4 °F 54% 29.76 in 10.0 mi SSE 13.8 mph 24.2 mph N/A   Clear
1:33 PM 55.4 °F - 37.4 °F 51% 29.75 in 10.0 mi SSE 10.4 mph 19.6 mph N/A   Clear
1:53 PM 55.4 °F - 37.4 °F 51% 29.74 in 10.0 mi SSE 12.7 mph 20.7 mph N/A   Clear
2:13 PM 55.4 °F - 37.4 °F 51% 29.73 in 10.0 mi SSE 11.5 mph 24.2 mph N/A   Clear
2:33 PM 57.2 °F - 35.6 °F 44% 29.72 in 10.0 mi SSE 17.3 mph 24.2 mph N/A   Clear
2:53 PM 57.2 °F - 35.6 °F 44% 29.72 in 10.0 mi SSE 17.3 mph 24.2 mph N/A   Clear
3:13 PM 57.2 °F - 35.6 °F 44% 29.71 in 10.0 mi SSE 13.8 mph 20.7 mph N/A   Clear
3:33 PM 55.4 °F - 37.4 °F 51% 29.70 in 10.0 mi SSE 16.1 mph 26.5 mph N/A   Clear
3:53 PM 55.4 °F - 37.4 °F 51% 29.70 in 10.0 mi SSE 13.8 mph 24.2 mph N/A   Clear
4:13 PM 55.4 °F - 37.4 °F 51% 29.69 in 10.0 mi SSE 17.3 mph 24.2 mph N/A   Clear
4:33 PM 55.4 °F - 37.4 °F 51% 29.68 in 10.0 mi SSE 15.0 mph 21.9 mph N/A   Clear
4:53 PM 55.4 °F - 37.4 °F 51% 29.68 in 10.0 mi SSE 17.3 mph 25.3 mph N/A   Clear
5:13 PM 53.6 °F - 39.2 °F 58% 29.67 in 10.0 mi SSE 15.0 mph 26.5 mph N/A   Clear
5:33 PM 53.6 °F - 39.2 °F 58% 29.67 in 10.0 mi SSE 18.4 mph 26.5 mph N/A   Clear
5:53 PM 53.6 °F - 39.2 °F 58% 29.67 in 10.0 mi SSE 16.1 mph 28.8 mph N/A   Clear
6:13 PM 53.6 °F - 39.2 °F 58% 29.66 in 10.0 mi SE 20.7 mph 26.5 mph N/A   Clear
6:33 PM 51.8 °F - 41.0 °F 67% 29.65 in 10.0 mi SSE 18.4 mph 28.8 mph N/A   Clear
6:53 PM 51.8 °F - 41.0 °F 67% 29.66 in 10.0 mi SE 21.9 mph 27.6 mph N/A   Clear
7:14 PM 50.0 °F - 41.0 °F 71% 29.64 in 10.0 mi SE 20.7 mph 31.1 mph N/A   Clear
7:33 PM 48.2 °F - 41.0 °F 76% 29.64 in 10.0 mi SSE 20.7 mph 28.8 mph N/A   Clear
7:53 PM 48.2 °F - 41.0 °F 76% 29.64 in 10.0 mi SSE 18.4 mph 31.1 mph N/A   Clear
8:13 PM 46.4 °F 39.2 °F 41.0 °F 81% 29.63 in 10.0 mi SE 18.4 mph 33.4 mph N/A   Scattered Clouds
8:33 PM 46.4 °F 39.0 °F 42.8 °F 87% 29.63 in 10.0 mi SE 19.6 mph 28.8 mph N/A   Scattered Clouds
8:53 PM 46.4 °F 39.2 °F 42.8 °F 87% 29.64 in 10.0 mi SSE 18.4 mph 26.5 mph N/A   Mostly Cloudy
9:14 PM 46.4 °F 40.1 °F 42.8 °F 87% 29.65 in 10.0 mi SSE 15.0 mph 28.8 mph N/A   Mostly Cloudy
9:33 PM 46.4 °F 40.7 °F 42.8 °F 87% 29.65 in 10.0 mi SSE 12.7 mph 25.3 mph N/A   Overcast
9:53 PM 46.4 °F 40.1 °F 42.8 °F 87% 29.65 in 10.0 mi SSE 15.0 mph 24.2 mph N/A   Overcast
10:12 PM 46.4 °F 40.4 °F 42.8 °F 87% 29.65 in 10.0 mi SSE 13.8 mph 29.9 mph N/A   Overcast
10:33 PM 46.4 °F 40.4 °F 42.8 °F 87% 29.67 in 10.0 mi SSE 13.8 mph 21.9 mph N/A   Overcast
10:53 PM 46.4 °F 41.1 °F 42.8 °F 87% 29.67 in 10.0 mi SSE 11.5 mph 18.4 mph N/A   Overcast
11:12 PM 46.4 °F 41.1 °F 42.8 °F 87% 29.67 in 10.0 mi SSE 11.5 mph 20.7 mph N/A   Overcast
11:33 PM 46.4 °F 40.4 °F 42.8 °F 87% 29.67 in 10.0 mi SSE 13.8 mph 19.6 mph N/A   Overcast
11:53 PM 46.4 °F 40.7 °F 42.8 °F 87% 29.66 in 10.0 mi SSE 12.7 mph 24.2 mph N/A   Mostly Cloudy